[[{"header":{"parameterUnit":"m.s-1","parameterCategory":1,"la1":30.2991,"la2":30.254,"lo1":-89.0895,"lo2":-89.0444,"dy":0.0017,"dx":0.0017,"nx":28,"ny":28,"refTime":"2023-09-05T03:00:00:Z","depth":0,"parameterNumber":2,"parameterNumberName":"U-component_of_WINDS"},"data":[0,0,0,0,0,0,0,0,0,0,0,0,0,0,0,0,0,0,0,0,0,0,0,0,0,0,0,0,0,0,0,0,0,0,0,0,0,0,0,0,0,0,0,0,0,0,0,0,0,0,0,0,0,0,0,0,0,0,-3.3021,-3.3022,0,-3.3079,-3.308,-3.308,-3.3033,-3.3031,-3.303,-3.3028,-3.3084,-3.3088,-3.3091,0,0,0,0,0,0,0,0,0,0,0,0,0,-3.2868,-3.2871,-3.3021,-3.3022,-3.3023,-3.3079,-3.308,-3.308,-3.3034,-3.3031,-3.3029,-3.3027,-3.3083,-3.3087,-3.3091,0,0,0,0,0,0,0,0,0,0,0,0,0,-3.2931,-3.2872,-3.3021,-3.3006,-3.3005,-3.3079,-3.308,-3.3081,-3.3034,-3.3031,-3.3028,-3.3026,-3.3082,-3.3087,-3.3092,-3.3182,0,0,-3.3107,-3.3109,0,0,0,0,0,0,0,0,-3.2928,-3.2937,-3.3008,-3.3007,-3.3007,-3.3046,-3.3047,-3.3115,-3.3035,-3.3023,-3.3028,-3.3024,-3.3074,-3.3079,-3.3097,-3.3185,-3.3187,-3.3108,-3.3111,-3.3113,-3.3114,0,0,0,0,0,0,0,-3.2924,-3.2934,-3.3044,-3.3009,-3.3008,-3.2996,-3.3002,-3.3059,-3.3064,-3.3024,-3.3021,-3.3028,-3.3073,-3.3092,-3.3098,-3.3188,-3.3108,-3.3112,-3.3115,-3.3117,-3.3352,-3.3355,0,0,0,0,0,0,-3.2921,-3.2931,-3.3042,-3.3046,-3.2959,-3.3001,-3.3007,-3.3036,-3.3064,-3.3065,-3.3031,-3.3026,-3.3085,-3.3092,-3.3099,-3.3206,-3.3113,-3.3118,-3.312,-3.3349,-3.3353,-3.3357,0,0,0,0,0,0,-3.2918,-3.2931,-3.304,-3.2988,-3.3,-3.3007,-3.304,-3.3039,-3.3058,-3.3069,-3.3069,-3.3049,-3.3083,-3.3092,-3.3162,-3.3207,-3.312,-3.3124,-3.3345,-3.335,-3.3355,-3.342,0,0,0,0,0,0,-3.2914,-3.2931,-3.2965,-3.2989,-3.3003,-3.3102,-3.3043,-3.3042,-3.3067,-3.3061,-3.3086,-3.3088,-3.3081,-3.3155,-3.3167,-3.3213,-3.3128,-3.3341,-3.3348,-3.3353,-3.3414,-3.3427,-3.3438,0,0,0,0,0,-3.2908,-3.2981,-3.2967,-3.2981,-3.3047,-3.3105,-3.3113,-3.3105,-3.3071,-3.3105,-3.3113,-3.3087,-3.3201,-3.3162,-3.3176,-3.3223,-3.3338,-3.3346,-3.3353,-3.3409,-3.3424,-3.3437,0,0,0,0,0,0,-3.2962,-3.2984,-3.2969,-3.3051,-3.3077,-3.3097,-3.314,-3.3122,-3.3156,-3.3149,-3.3137,-3.3143,-3.3216,-3.3227,-3.3184,-3.3312,-3.3264,-3.3274,-3.3302,-3.3317,-3.3328,-3.3323,-3.3132,0,0,0,0,0,-3.2984,-3.3029,-3.3046,-3.3117,-3.3131,-3.3134,-3.3158,-3.315,-3.3175,-3.3185,-3.3197,-3.3223,-3.3264,-3.3291,-3.333,-3.3416,-3.342,-3.3456,-3.3467,-3.3477,-3.3485,-3.3531,-3.3546,-3.338,-3.338,-3.338,0,0,-3.3028,-3.3046,-3.3075,-3.3128,-3.3147,-3.3193,-3.3143,-3.3194,-3.3228,-3.3193,-3.3259,-3.3269,-3.3296,-3.3374,-3.3409,-3.3385,-3.3533,-3.3486,-3.3494,-3.3497,-3.354,-3.3556,-3.357,-3.3385,-3.3384,-3.3384,0,0,-3.3133,-3.3152,-3.3212,-3.3233,-3.3262,-3.3263,-3.3278,-3.3301,-3.3307,-3.3373,-3.3348,-3.3388,-3.346,-3.348,-3.35,-3.3613,-3.359,-3.3626,-3.3687,-3.3732,-3.3745,-3.3756,-3.3795,-3.381,-3.3635,-3.3635,-3.3635,0,-3.3184,-3.3254,-3.3246,-3.33,-3.3323,-3.3295,-3.3356,-3.3375,-3.3415,-3.3432,-3.3405,-3.3495,-3.3511,-3.3593,-3.3621,-3.3638,-3.3654,-3.3622,-3.3744,-3.3755,-3.3766,-3.3803,-3.3818,-3.3639,-3.3639,-3.3638,-3.3638,0,-3.3315,-3.3365,-3.341,-3.345,-3.3479,-3.3537,-3.3536,-3.3566,-3.3556,-3.356,-3.3628,-3.3647,-3.3689,-3.3708,-3.3698,-3.3789,-3.3773,-3.3745,-3.3696,-3.3786,-3.382,-3.3834,-3.3645,-3.3644,-3.3642,-3.3641,0,0,-3.3454,-3.349,-3.3506,-3.3524,-3.3554,-3.3592,-3.3648,-3.3689,-3.3715,-3.3744,-3.379,-3.3852,-3.3826,-3.3849,-3.3841,-3.388,-3.3968,-3.3848,-3.3848,-3.3868,-3.4067,-3.4086,-3.4103,-3.3954,-3.3956,-3.3959,-3.4064,0,-3.3559,-3.3656,-3.3651,-3.3742,-3.3787,-3.3761,-3.3809,-3.3833,-3.3838,-3.3877,-3.3883,-3.3926,-3.389,-3.3904,-3.3942,-3.3949,-3.4007,-3.3942,-3.3994,-3.3996,-3.3987,-3.4121,-3.4142,-3.4241,-3.4078,-3.408,-3.4082,0,-3.3694,-3.3728,-3.3824,-3.3848,-3.3866,-3.391,-3.3947,-3.3985,-3.4011,-3.4012,-3.4038,-3.4024,-3.408,-3.4031,-3.4107,-3.4063,-3.4084,-3.4091,-3.4095,-3.4098,-3.4043,-3.4126,-3.4272,-3.4287,-3.4103,-3.4102,-3.41,0,-3.3783,-3.3854,-3.392,-3.3936,-3.3966,-3.3997,-3.4011,-3.4034,-3.4059,-3.4092,-3.4108,-3.4147,-3.4168,-3.4198,-3.4195,-3.416,-3.4272,-3.4223,-3.4273,-3.4273,-3.4296,-3.4295,-3.4446,-3.4314,-3.4313,-3.4313,-3.4313,0,-3.39,-3.3959,-3.396,-3.4001,-3.4066,-3.406,-3.4124,-3.4135,-3.4156,-3.4197,-3.4178,-3.4217,-3.4211,-3.425,-3.4248,-3.431,-3.432,-3.4322,-3.432,-3.4323,-3.4323,-3.4335,-3.4328,-3.4317,-3.4316,-3.4315,-3.4315,0,-3.401,-3.4014,-3.4084,-3.4107,-3.4114,-3.4161,-3.418,-3.4218,-3.4223,-3.4275,-3.4287,-3.4294,-3.434,-3.434,-3.4391,-3.439,-3.4466,-3.4457,-3.4457,-3.4455,-3.4504,-3.4499,-3.4668,-3.4689,-3.4544,-3.4546,-3.4547,0,-3.4084,-3.4129,-3.4157,-3.4184,-3.4199,-3.4243,-3.4269,-3.4264,-3.4291,-3.4325,-3.4359,-3.4402,-3.4437,-3.451,-3.4519,-3.4559,-3.455,-3.4606,-3.4555,-3.4556,-3.4549,-3.4545,-3.4549,-3.4615,-3.4617,-3.4618,-3.4619,0,-3.4213,-3.4213,-3.4251,-3.4291,-3.4323,-3.4353,-3.4381,-3.4404,-3.4402,-3.4435,-3.4481,-3.4508,-3.4561,-3.4604,-3.4642,-3.4655,-3.4637,-3.4636,-3.4649,-3.4651,-3.4649,-3.4649,-3.4482,-3.4631,-3.463,-3.4629,-3.4629,-3.4628,-3.4307,-3.4345,-3.4371,-3.4414,-3.4435,-3.4462,-3.4499,-3.4508,-3.4547,-3.459,-3.4585,-3.4636,-3.4661,-3.471,-3.4727,-3.4767,-3.4747,-3.4767,-3.4771,-3.4776,-3.4781,-3.4644,-3.4774,-3.4774,-3.4773,-3.4773,-3.4773,0,-3.4434,-3.4449,-3.4489,-3.453,-3.4564,-3.4545,-3.4575,-3.4605,-3.4651,-3.4676,-3.471,-3.4763,-3.4805,-3.4818,-3.4858,-3.4888,-3.488,-3.4898,-3.4895,-3.4898,-3.4797,-3.4781,-3.4903,-3.4903,-3.4903,-3.4903,-3.4903,-3.4903,-3.4504,-3.4568,-3.4571,-3.4644,-3.4659,-3.471,-3.4729,-3.4753,-3.4773,-3.4833,-3.4868,-3.4877,-3.4897,-3.4939,-3.4976,-3.4979,-3.4994,-3.5015,-3.5014,-3.4919,-3.4905,-3.4893,-3.4877,-3.5019,-3.5019,-3.5112,-3.5113,-3.5113]},{"header":{"parameterUnit":"m.s-1","parameterCategory":1,"la1":30.2991,"la2":30.254,"lo1":-89.0895,"lo2":-89.0444,"dy":0.0017,"dx":0.0017,"nx":28,"ny":28,"refTime":"2023-09-05T03:00:00:Z","depth":0,"parameterNumber":3,"parameterNumberName":"V-component_of_WINDS"},"data":[0,0,0,0,0,0,0,0,0,0,0,0,0,0,0,0,0,0,0,0,0,0,0,0,0,0,0,0,0,0,0,0,0,0,0,0,0,0,0,0,0,0,0,0,0,0,0,0,0,0,0,0,0,0,0,0,0,0,3.119,3.1191,0,3.1309,3.131,3.1312,3.1351,3.135,3.135,3.1349,3.1467,3.147,3.1474,0,0,0,0,0,0,0,0,0,0,0,0,0,3.0992,3.0996,3.119,3.1191,3.1193,3.1309,3.1311,3.1312,3.1351,3.135,3.135,3.1349,3.1465,3.147,3.1474,0,0,0,0,0,0,0,0,0,0,0,0,0,3.1091,3.0997,3.119,3.1226,3.1231,3.1309,3.1311,3.1313,3.1351,3.135,3.135,3.1349,3.1464,3.1469,3.1475,3.1523,0,0,3.1491,3.1493,0,0,0,0,0,0,0,0,3.1086,3.1099,3.1219,3.1224,3.1229,3.1315,3.1284,3.1383,3.1351,3.1305,3.1349,3.1349,3.1416,3.1426,3.1449,3.1528,3.1533,3.1492,3.1495,3.1497,3.1499,0,0,0,0,0,0,0,3.1079,3.1094,3.1237,3.1221,3.1227,3.1236,3.1249,3.1303,3.1363,3.1309,3.1312,3.1326,3.1419,3.1444,3.1452,3.1535,3.1491,3.1496,3.15,3.1502,3.166,3.1661,0,0,0,0,0,0,3.1066,3.1088,3.1233,3.1241,3.1154,3.124,3.1255,3.1288,3.1363,3.1374,3.1327,3.1328,3.1435,3.1446,3.1457,3.1518,3.1497,3.1502,3.1505,3.1659,3.1661,3.1662,0,0,0,0,0,0,3.1062,3.1079,3.1228,3.1165,3.1185,3.1244,3.1281,3.1291,3.1316,3.1376,3.1387,3.1342,3.1435,3.1449,3.1507,3.1523,3.1505,3.1509,3.1658,3.166,3.1661,3.1642,0,0,0,0,0,0,3.1056,3.1077,3.1097,3.1165,3.1188,3.1277,3.1282,3.1293,3.1326,3.1328,3.1393,3.1403,3.1436,3.1498,3.1512,3.153,3.1514,3.1657,3.1659,3.1661,3.1641,3.1642,3.1643,0,0,0,0,0,3.1049,3.1085,3.1098,3.1115,3.1214,3.1278,3.1291,3.1329,3.1327,3.1347,3.1386,3.1401,3.1519,3.1504,3.152,3.1539,3.1656,3.1658,3.1661,3.1641,3.1642,3.1643,0,0,0,0,0,0,3.1015,3.1095,3.1109,3.1169,3.1217,3.1285,3.1311,3.1329,3.1377,3.1377,3.1421,3.1435,3.1489,3.152,3.1502,3.1591,3.1588,3.1594,3.1568,3.157,3.1571,3.1562,3.1518,0,0,0,0,0,3.1015,3.1062,3.1129,3.1175,3.1198,3.125,3.128,3.1305,3.1355,3.1375,3.1418,3.1465,3.1513,3.1543,3.1591,3.1647,3.1661,3.1668,3.1669,3.167,3.1673,3.1705,3.1709,3.1669,3.1669,3.1669,0,0,3.1015,3.1064,3.1091,3.117,3.1209,3.1256,3.1267,3.1315,3.1349,3.1382,3.1439,3.1473,3.1528,3.1585,3.1612,3.1612,3.1688,3.1673,3.1673,3.1676,3.1708,3.1712,3.1715,3.1671,3.167,3.167,0,0,3.1038,3.108,3.1124,3.1164,3.1225,3.1259,3.127,3.1335,3.1359,3.1418,3.1444,3.1485,3.1566,3.1605,3.1635,3.1674,3.169,3.1688,3.1693,3.1724,3.1727,3.173,3.1744,3.1748,3.1692,3.1692,3.1692,0,3.1029,3.1101,3.1143,3.1191,3.1224,3.1258,3.1302,3.1339,3.1411,3.1433,3.1433,3.1537,3.1577,3.1643,3.1653,3.1677,3.1689,3.168,3.1724,3.1727,3.173,3.1744,3.1749,3.1691,3.1692,3.1692,3.1692,0,3.1087,3.1136,3.1164,3.1235,3.1272,3.1317,3.1366,3.1398,3.1421,3.1455,3.1514,3.1564,3.1622,3.164,3.1661,3.1709,3.1708,3.1715,3.1714,3.1733,3.1746,3.1751,3.169,3.1691,3.1691,3.1691,0,0,3.109,3.1185,3.1195,3.1228,3.1298,3.1336,3.1383,3.1442,3.1468,3.1518,3.1557,3.1627,3.1635,3.1669,3.1695,3.1722,3.175,3.1727,3.1729,3.1729,3.1805,3.1798,3.1804,3.1762,3.1763,3.1764,3.1801,0,3.1121,3.1208,3.1248,3.1316,3.1362,3.1395,3.1436,3.1483,3.1517,3.156,3.1597,3.1645,3.1652,3.1673,3.1701,3.1741,3.1766,3.1739,3.1798,3.1799,3.1782,3.1811,3.1803,3.1835,3.1806,3.1807,3.1808,0,3.1168,3.122,3.1293,3.1358,3.1379,3.1415,3.1473,3.1514,3.1568,3.159,3.163,3.1656,3.1706,3.1702,3.1771,3.1751,3.1778,3.1801,3.1803,3.1809,3.1803,3.1816,3.1847,3.1851,3.1816,3.1816,3.1815,0,3.1163,3.125,3.1305,3.1332,3.141,3.1435,3.1468,3.1522,3.1555,3.1604,3.1626,3.168,3.171,3.1751,3.1791,3.1785,3.1855,3.1855,3.1875,3.1874,3.1886,3.1885,3.1921,3.1906,3.1906,3.1906,3.1905,0,3.1192,3.1235,3.1303,3.1337,3.1386,3.1432,3.1479,3.1515,3.1562,3.1603,3.1635,3.1672,3.1724,3.1767,3.1798,3.185,3.1863,3.1882,3.189,3.1879,3.1876,3.1896,3.1894,3.1907,3.1907,3.1906,3.1906,0,3.1193,3.1241,3.1303,3.1373,3.1391,3.1424,3.1483,3.1517,3.1553,3.1604,3.1619,3.1675,3.1728,3.1772,3.1841,3.1862,3.1916,3.1925,3.1898,3.1902,3.1918,3.1916,3.1967,3.1976,3.1955,3.1956,3.1956,0,3.1209,3.1243,3.1317,3.1347,3.1381,3.1429,3.1463,3.151,3.1544,3.1609,3.1634,3.169,3.1737,3.182,3.1866,3.1919,3.193,3.1944,3.1937,3.1925,3.1929,3.1926,3.1929,3.1944,3.1944,3.1944,3.1944,0,3.1231,3.1253,3.1302,3.1359,3.14,3.1447,3.1494,3.1517,3.1572,3.1609,3.1665,3.1701,3.1773,3.1827,3.1886,3.1919,3.194,3.1946,3.1953,3.1941,3.1923,3.1932,3.1898,3.1944,3.1944,3.1944,3.1944,3.1944,3.1239,3.1271,3.1329,3.1382,3.1423,3.1468,3.1503,3.1544,3.1592,3.1654,3.1679,3.1735,3.1789,3.187,3.1904,3.1948,3.1951,3.1961,3.1964,3.1965,3.1963,3.1918,3.1959,3.1959,3.1959,3.1959,3.1959,0,3.1262,3.1301,3.135,3.1417,3.1459,3.1477,3.1532,3.1565,3.1615,3.1664,3.171,3.1774,3.1827,3.1878,3.1934,3.196,3.1971,3.1973,3.197,3.1978,3.1958,3.1946,3.1963,3.1963,3.1963,3.1963,3.1963,3.1963,3.1279,3.1334,3.1363,3.1439,3.1478,3.1535,3.1564,3.1605,3.1644,3.1714,3.176,3.1793,3.1843,3.1903,3.1953,3.1967,3.1985,3.1984,3.2,3.198,3.1979,3.1978,3.1967,3.1988,3.1988,3.2016,3.2017,3.2017]}]]